Year,Month,Day,Hour,Minute,Value (Times are PST for insolation in W/m^2)
2011,07,18,00,00,0.00
2011,07,18,00,01,0.00
2011,07,18,00,02,0.00
2011,07,18,00,03,0.00
2011,07,18,00,04,0.00
2011,07,18,00,05,0.00
2011,07,18,00,06,0.00
2011,07,18,00,07,0.00
2011,07,18,00,08,0.00
2011,07,18,00,09,0.00
2011,07,18,00,10,0.00
2011,07,18,00,11,0.00
2011,07,18,00,12,0.00
2011,07,18,00,13,0.00
2011,07,18,00,14,0.00
2011,07,18,00,15,0.00
2011,07,18,00,16,0.00
2011,07,18,00,17,0.00
2011,07,18,00,18,0.00
2011,07,18,00,19,0.00
2011,07,18,00,20,0.00
2011,07,18,00,21,0.00
2011,07,18,00,22,0.00
2011,07,18,00,23,0.00
2011,07,18,00,24,0.00
2011,07,18,00,25,0.00
2011,07,18,00,26,0.00
2011,07,18,00,27,0.00
2011,07,18,00,28,0.00
2011,07,18,00,29,0.00
2011,07,18,00,30,0.00
2011,07,18,00,31,0.00
2011,07,18,00,32,0.00
2011,07,18,00,33,0.00
2011,07,18,00,34,0.00
2011,07,18,00,35,0.00
2011,07,18,00,36,0.00
2011,07,18,00,37,0.00
2011,07,18,00,38,0.00
2011,07,18,00,39,0.00
2011,07,18,00,40,0.00
2011,07,18,00,41,0.00
2011,07,18,00,42,0.00
2011,07,18,00,43,0.00
2011,07,18,00,44,0.00
2011,07,18,00,45,0.00
2011,07,18,00,46,0.00
2011,07,18,00,47,0.00
2011,07,18,00,48,0.00
2011,07,18,00,49,0.00
2011,07,18,00,50,0.00
2011,07,18,00,51,0.00
2011,07,18,00,52,0.00
2011,07,18,00,53,0.00
2011,07,18,00,54,0.00
2011,07,18,00,55,0.00
2011,07,18,00,56,0.00
2011,07,18,00,57,0.00
2011,07,18,00,58,0.00
2011,07,18,00,59,0.00
2011,07,18,01,00,0.00
2011,07,18,01,01,0.00
2011,07,18,01,02,0.00
2011,07,18,01,03,0.00
2011,07,18,01,04,0.00
2011,07,18,01,05,0.00
2011,07,18,01,06,0.00
2011,07,18,01,07,0.00
2011,07,18,01,08,0.00
2011,07,18,01,09,0.00
2011,07,18,01,10,0.00
2011,07,18,01,11,0.00
2011,07,18,01,12,0.00
2011,07,18,01,13,0.00
2011,07,18,01,14,0.00
2011,07,18,01,15,0.00
2011,07,18,01,16,0.00
2011,07,18,01,17,0.00
2011,07,18,01,18,0.00
2011,07,18,01,19,0.00
2011,07,18,01,20,0.00
2011,07,18,01,21,0.00
2011,07,18,01,22,0.00
2011,07,18,01,23,0.00
2011,07,18,01,24,0.00
2011,07,18,01,25,0.00
2011,07,18,01,26,0.00
2011,07,18,01,27,0.00
2011,07,18,01,28,0.00
2011,07,18,01,29,0.00
2011,07,18,01,30,0.00
2011,07,18,01,31,0.00
2011,07,18,01,32,0.00
2011,07,18,01,33,0.00
2011,07,18,01,34,0.00
2011,07,18,01,35,0.00
2011,07,18,01,36,0.00
2011,07,18,01,37,0.00
2011,07,18,01,38,0.00
2011,07,18,01,39,0.00
2011,07,18,01,40,0.00
2011,07,18,01,41,0.00
2011,07,18,01,42,0.00
2011,07,18,01,43,0.00
2011,07,18,01,44,0.00
2011,07,18,01,45,0.00
2011,07,18,01,46,0.00
2011,07,18,01,47,0.00
2011,07,18,01,48,0.00
2011,07,18,01,49,0.00
2011,07,18,01,50,0.00
2011,07,18,01,51,0.00
2011,07,18,01,52,0.00
2011,07,18,01,53,0.00
2011,07,18,01,54,0.00
2011,07,18,01,55,0.00
2011,07,18,01,56,0.00
2011,07,18,01,57,0.00
2011,07,18,01,58,0.00
2011,07,18,01,59,0.00
2011,07,18,02,00,0.00
2011,07,18,02,01,0.00
2011,07,18,02,02,0.00
2011,07,18,02,03,0.00
2011,07,18,02,04,0.00
2011,07,18,02,05,0.00
2011,07,18,02,06,0.00
2011,07,18,02,07,0.00
2011,07,18,02,08,0.00
2011,07,18,02,09,0.00
2011,07,18,02,10,0.00
2011,07,18,02,11,0.00
2011,07,18,02,12,0.00
2011,07,18,02,13,0.00
2011,07,18,02,14,0.00
2011,07,18,02,15,0.00
2011,07,18,02,16,0.00
2011,07,18,02,17,0.00
2011,07,18,02,18,0.00
2011,07,18,02,19,0.00
2011,07,18,02,20,0.00
2011,07,18,02,21,0.00
2011,07,18,02,22,0.00
2011,07,18,02,23,0.00
2011,07,18,02,24,0.00
2011,07,18,02,25,0.00
2011,07,18,02,26,0.00
2011,07,18,02,27,0.00
2011,07,18,02,28,0.00
2011,07,18,02,29,0.00
2011,07,18,02,30,0.00
2011,07,18,02,31,0.00
2011,07,18,02,32,0.00
2011,07,18,02,33,0.00
2011,07,18,02,34,0.00
2011,07,18,02,35,0.00
2011,07,18,02,36,0.00
2011,07,18,02,37,0.00
2011,07,18,02,38,0.00
2011,07,18,02,39,0.00
2011,07,18,02,40,0.00
2011,07,18,02,41,0.00
2011,07,18,02,42,0.00
2011,07,18,02,43,0.00
2011,07,18,02,44,0.00
2011,07,18,02,45,0.00
2011,07,18,02,46,0.00
2011,07,18,02,47,0.00
2011,07,18,02,48,0.00
2011,07,18,02,49,0.00
2011,07,18,02,50,0.00
2011,07,18,02,51,0.00
2011,07,18,02,52,0.00
2011,07,18,02,53,0.00
2011,07,18,02,54,0.00
2011,07,18,02,55,0.00
2011,07,18,02,56,0.00
2011,07,18,02,57,0.00
2011,07,18,02,58,0.00
2011,07,18,02,59,0.00
2011,07,18,03,00,0.00
2011,07,18,03,01,0.00
2011,07,18,03,02,0.00
2011,07,18,03,03,0.00
2011,07,18,03,04,0.00
2011,07,18,03,05,0.00
2011,07,18,03,06,0.00
2011,07,18,03,07,0.00
2011,07,18,03,08,0.00
2011,07,18,03,09,0.00
2011,07,18,03,10,0.00
2011,07,18,03,11,0.00
2011,07,18,03,12,0.00
2011,07,18,03,13,0.00
2011,07,18,03,14,0.00
2011,07,18,03,15,0.00
2011,07,18,03,16,0.00
2011,07,18,03,17,0.00
2011,07,18,03,18,0.00
2011,07,18,03,19,0.00
2011,07,18,03,20,0.00
2011,07,18,03,21,0.00
2011,07,18,03,22,0.00
2011,07,18,03,23,0.00
2011,07,18,03,24,0.00
2011,07,18,03,25,0.00
2011,07,18,03,26,0.00
2011,07,18,03,27,0.00
2011,07,18,03,28,0.00
2011,07,18,03,29,0.00
2011,07,18,03,30,0.00
2011,07,18,03,31,0.00
2011,07,18,03,32,0.00
2011,07,18,03,33,0.00
2011,07,18,03,34,0.00
2011,07,18,03,35,0.00
2011,07,18,03,36,0.00
2011,07,18,03,37,0.00
2011,07,18,03,38,0.00
2011,07,18,03,39,0.00
2011,07,18,03,40,0.00
2011,07,18,03,41,0.00
2011,07,18,03,42,0.00
2011,07,18,03,43,0.00
2011,07,18,03,44,0.00
2011,07,18,03,45,0.00
2011,07,18,03,46,0.00
2011,07,18,03,47,0.00
2011,07,18,03,48,0.00
2011,07,18,03,49,0.00
2011,07,18,03,50,0.00
2011,07,18,03,51,0.00
2011,07,18,03,52,0.00
2011,07,18,03,53,0.00
2011,07,18,03,54,0.00
2011,07,18,03,55,0.00
2011,07,18,03,56,0.00
2011,07,18,03,57,0.00
2011,07,18,03,58,0.00
2011,07,18,03,59,0.00
2011,07,18,04,00,0.00
2011,07,18,04,01,0.00
2011,07,18,04,02,0.00
2011,07,18,04,03,0.00
2011,07,18,04,04,0.00
2011,07,18,04,05,0.00
2011,07,18,04,06,0.00
2011,07,18,04,07,0.00
2011,07,18,04,08,0.00
2011,07,18,04,09,0.00
2011,07,18,04,10,0.00
2011,07,18,04,11,0.00
2011,07,18,04,12,0.00
2011,07,18,04,13,0.00
2011,07,18,04,14,0.00
2011,07,18,04,15,0.00
2011,07,18,04,16,0.00
2011,07,18,04,17,0.00
2011,07,18,04,18,0.00
2011,07,18,04,19,0.00
2011,07,18,04,20,0.00
2011,07,18,04,21,0.00
2011,07,18,04,22,0.00
2011,07,18,04,23,0.00
2011,07,18,04,24,0.00
2011,07,18,04,25,0.00
2011,07,18,04,26,0.00
2011,07,18,04,27,0.00
2011,07,18,04,28,0.00
2011,07,18,04,29,0.00
2011,07,18,04,30,0.00
2011,07,18,04,31,0.00
2011,07,18,04,32,0.00
2011,07,18,04,33,0.00
2011,07,18,04,34,0.00
2011,07,18,04,35,0.00
2011,07,18,04,36,0.00
2011,07,18,04,37,0.00
2011,07,18,04,38,0.00
2011,07,18,04,39,0.00
2011,07,18,04,40,0.00
2011,07,18,04,41,0.00
2011,07,18,04,42,0.00
2011,07,18,04,43,0.00
2011,07,18,04,44,0.00
2011,07,18,04,45,0.00
2011,07,18,04,46,0.00
2011,07,18,04,47,0.00
2011,07,18,04,48,0.00
2011,07,18,04,49,0.00
2011,07,18,04,50,0.00
2011,07,18,04,51,0.00
2011,07,18,04,52,0.00
2011,07,18,04,53,0.00
2011,07,18,04,54,0.00
2011,07,18,04,55,0.00
2011,07,18,04,56,0.00
2011,07,18,04,57,0.00
2011,07,18,04,58,0.00
2011,07,18,04,59,0.00
2011,07,18,05,00,0.00
2011,07,18,05,01,0.00
2011,07,18,05,02,0.00
2011,07,18,05,03,0.00
2011,07,18,05,04,0.00
2011,07,18,05,05,0.00
2011,07,18,05,06,0.00
2011,07,18,05,07,0.00
2011,07,18,05,08,0.00
2011,07,18,05,09,0.00
2011,07,18,05,10,0.00
2011,07,18,05,11,0.00
2011,07,18,05,12,0.00
2011,07,18,05,13,0.00
2011,07,18,05,14,0.00
2011,07,18,05,15,0.00
2011,07,18,05,16,0.00
2011,07,18,05,17,0.00
2011,07,18,05,18,0.00
2011,07,18,05,19,0.00
2011,07,18,05,20,0.00
2011,07,18,05,21,0.00
2011,07,18,05,22,0.00
2011,07,18,05,23,0.00
2011,07,18,05,24,0.00
2011,07,18,05,25,0.00
2011,07,18,05,26,0.00
2011,07,18,05,27,0.00
2011,07,18,05,28,0.00
2011,07,18,05,29,0.00
2011,07,18,05,30,0.00
2011,07,18,05,31,0.00
2011,07,18,05,32,0.00
2011,07,18,05,33,0.00
2011,07,18,05,34,0.00
2011,07,18,05,35,0.00
2011,07,18,05,36,0.00
2011,07,18,05,37,0.00
2011,07,18,05,38,0.00
2011,07,18,05,39,0.00
2011,07,18,05,40,0.00
2011,07,18,05,41,0.00
2011,07,18,05,42,0.00
2011,07,18,05,43,0.00
2011,07,18,05,44,0.00
2011,07,18,05,45,0.00
2011,07,18,05,46,0.00
2011,07,18,05,47,0.00
2011,07,18,05,48,0.00
2011,07,18,05,49,0.00
2011,07,18,05,50,0.00
2011,07,18,05,51,3.40
2011,07,18,05,52,5.00
2011,07,18,05,53,5.00
2011,07,18,05,54,5.00
2011,07,18,05,55,5.00
2011,07,18,05,56,5.00
2011,07,18,05,57,5.00
2011,07,18,05,58,5.00
2011,07,18,05,59,5.00
2011,07,18,06,00,5.00
2011,07,18,06,01,5.00
2011,07,18,06,02,5.00
2011,07,18,06,03,5.00
2011,07,18,06,04,5.00
2011,07,18,06,05,7.00
2011,07,18,06,06,7.00
2011,07,18,06,07,7.00
2011,07,18,06,08,7.00
2011,07,18,06,09,7.00
2011,07,18,06,10,7.00
2011,07,18,06,11,7.00
2011,07,18,06,12,7.00
2011,07,18,06,13,7.00
2011,07,18,06,14,7.00
2011,07,18,06,15,7.00
2011,07,18,06,16,7.00
2011,07,18,06,17,9.00
2011,07,18,06,18,9.00
2011,07,18,06,19,9.90
2011,07,18,06,20,11.00
2011,07,18,06,21,11.00
2011,07,18,06,22,11.90
2011,07,18,06,23,12.40
2011,07,18,06,24,14.00
2011,07,18,06,25,14.00
2011,07,18,06,26,15.40
2011,07,18,06,27,16.00
2011,07,18,06,28,17.90
2011,07,18,06,29,18.00
2011,07,18,06,30,18.40
2011,07,18,06,31,19.00
2011,07,18,06,32,19.00
2011,07,18,06,33,20.60
2011,07,18,06,34,21.20
2011,07,18,06,35,23.00
2011,07,18,06,36,23.80
2011,07,18,06,37,25.00
2011,07,18,06,38,25.00
2011,07,18,06,39,25.90
2011,07,18,06,40,26.00
2011,07,18,06,41,26.60
2011,07,18,06,42,28.00
2011,07,18,06,43,28.00
2011,07,18,06,44,29.40
2011,07,18,06,45,30.00
2011,07,18,06,46,32.00
2011,07,18,06,47,32.00
2011,07,18,06,48,32.00
2011,07,18,06,49,32.60
2011,07,18,06,50,33.00
2011,07,18,06,51,33.00
2011,07,18,06,52,33.00
2011,07,18,06,53,33.60
2011,07,18,06,54,35.00
2011,07,18,06,55,35.00
2011,07,18,06,56,36.50
2011,07,18,06,57,37.10
2011,07,18,06,58,39.00
2011,07,18,06,59,39.30
2011,07,18,07,00,40.90
2011,07,18,07,01,42.00
2011,07,18,07,02,43.60
2011,07,18,07,03,45.90
2011,07,18,07,04,47.00
2011,07,18,07,05,47.70
2011,07,18,07,06,50.00
2011,07,18,07,07,52.40
2011,07,18,07,08,55.40
2011,07,18,07,09,58.10
2011,07,18,07,10,60.40
2011,07,18,07,11,62.00
2011,07,18,07,12,62.50
2011,07,18,07,13,63.00
2011,07,18,07,14,64.70
2011,07,18,07,15,67.00
2011,07,18,07,16,67.40
2011,07,18,07,17,69.00
2011,07,18,07,18,69.60
2011,07,18,07,19,71.40
2011,07,18,07,20,72.00
2011,07,18,07,21,74.30
2011,07,18,07,22,76.80
2011,07,18,07,23,79.80
2011,07,18,07,24,82.10
2011,07,18,07,25,83.70
2011,07,18,07,26,84.00
2011,07,18,07,27,84.00
2011,07,18,07,28,84.00
2011,07,18,07,29,84.00
2011,07,18,07,30,83.40
2011,07,18,07,31,83.00
2011,07,18,07,32,81.20
2011,07,18,07,33,76.60
2011,07,18,07,34,73.40
2011,07,18,07,35,72.00
2011,07,18,07,36,73.20
2011,07,18,07,37,75.50
2011,07,18,07,38,77.00
2011,07,18,07,39,79.40
2011,07,18,07,40,81.00
2011,07,18,07,41,81.00
2011,07,18,07,42,81.00
2011,07,18,07,43,81.00
2011,07,18,07,44,81.10
2011,07,18,07,45,83.00
2011,07,18,07,46,83.00
2011,07,18,07,47,81.90
2011,07,18,07,48,81.00
2011,07,18,07,49,83.40
2011,07,18,07,50,86.00
2011,07,18,07,51,88.00
2011,07,18,07,52,88.70
2011,07,18,07,53,88.90
2011,07,18,07,54,85.40
2011,07,18,07,55,83.20
2011,07,18,07,56,82.80
2011,07,18,07,57,81.00
2011,07,18,07,58,81.00
2011,07,18,07,59,81.00
2011,07,18,08,00,81.00
2011,07,18,08,01,79.30
2011,07,18,08,02,76.80
2011,07,18,08,03,76.00
2011,07,18,08,04,76.00
2011,07,18,08,05,74.90
2011,07,18,08,06,74.00
2011,07,18,08,07,74.00
2011,07,18,08,08,74.00
2011,07,18,08,09,74.00
2011,07,18,08,10,74.00
2011,07,18,08,11,75.20
2011,07,18,08,12,76.00
2011,07,18,08,13,76.80
2011,07,18,08,14,79.00
2011,07,18,08,15,79.60
2011,07,18,08,16,81.90
2011,07,18,08,17,83.00
2011,07,18,08,18,83.80
2011,07,18,08,19,85.80
2011,07,18,08,20,85.70
2011,07,18,08,21,84.70
2011,07,18,08,22,86.00
2011,07,18,08,23,86.00
2011,07,18,08,24,86.00
2011,07,18,08,25,86.20
2011,07,18,08,26,90.60
2011,07,18,08,27,94.40
2011,07,18,08,28,97.50
2011,07,18,08,29,100.60
2011,07,18,08,30,103.60
2011,07,18,08,31,104.90
2011,07,18,08,32,103.50
2011,07,18,08,33,102.00
2011,07,18,08,34,100.90
2011,07,18,08,35,98.70
2011,07,18,08,36,97.20
2011,07,18,08,37,94.90
2011,07,18,08,38,93.00
2011,07,18,08,39,93.00
2011,07,18,08,40,94.10
2011,07,18,08,41,96.40
2011,07,18,08,42,97.80
2011,07,18,08,43,100.50
2011,07,18,08,44,106.50
2011,07,18,08,45,113.80
2011,07,18,08,46,121.70
2011,07,18,08,47,129.90
2011,07,18,08,48,139.60
2011,07,18,08,49,148.70
2011,07,18,08,50,157.10
2011,07,18,08,51,165.10
2011,07,18,08,52,171.90
2011,07,18,08,53,177.50
2011,07,18,08,54,184.40
2011,07,18,08,55,190.50
2011,07,18,08,56,194.20
2011,07,18,08,57,198.40
2011,07,18,08,58,202.30
2011,07,18,08,59,205.50
2011,07,18,09,00,206.00
2011,07,18,09,01,205.10
2011,07,18,09,02,199.70
2011,07,18,09,03,197.20
2011,07,18,09,04,193.20
2011,07,18,09,05,188.80
2011,07,18,09,06,186.10
2011,07,18,09,07,183.00
2011,07,18,09,08,182.30
2011,07,18,09,09,181.00
2011,07,18,09,10,179.70
2011,07,18,09,11,179.00
2011,07,18,09,12,177.90
2011,07,18,09,13,173.20
2011,07,18,09,14,169.50
2011,07,18,09,15,164.40
2011,07,18,09,16,158.10
2011,07,18,09,17,153.60
2011,07,18,09,18,147.60
2011,07,18,09,19,141.20
2011,07,18,09,20,137.40
2011,07,18,09,21,133.40
2011,07,18,09,22,130.70
2011,07,18,09,23,128.30
2011,07,18,09,24,126.40
2011,07,18,09,25,122.40
2011,07,18,09,26,120.60
2011,07,18,09,27,120.00
2011,07,18,09,28,118.60
2011,07,18,09,29,118.00
2011,07,18,09,30,120.10
2011,07,18,09,31,122.20
2011,07,18,09,32,127.10
2011,07,18,09,33,132.80
2011,07,18,09,34,140.20
2011,07,18,09,35,147.10
2011,07,18,09,36,156.10
2011,07,18,09,37,164.70
2011,07,18,09,38,174.60
2011,07,18,09,39,185.40
2011,07,18,09,40,197.50
2011,07,18,09,41,212.20
2011,07,18,09,42,225.20
2011,07,18,09,43,237.80
2011,07,18,09,44,250.50
2011,07,18,09,45,260.90
2011,07,18,09,46,269.50
2011,07,18,09,47,273.90
2011,07,18,09,48,278.20
2011,07,18,09,49,278.60
2011,07,18,09,50,276.10
2011,07,18,09,51,272.10
2011,07,18,09,52,266.20
2011,07,18,09,53,259.70
2011,07,18,09,54,253.20
2011,07,18,09,55,245.20
2011,07,18,09,56,237.30
2011,07,18,09,57,228.10
2011,07,18,09,58,219.40
2011,07,18,09,59,208.70
2011,07,18,10,00,200.60
2011,07,18,10,01,192.40
2011,07,18,10,02,185.50
2011,07,18,10,03,179.60
2011,07,18,10,04,174.80
2011,07,18,10,05,168.40
2011,07,18,10,06,162.10
2011,07,18,10,07,157.90
2011,07,18,10,08,151.10
2011,07,18,10,09,143.10
2011,07,18,10,10,135.10
2011,07,18,10,11,126.60
2011,07,18,10,12,122.10
2011,07,18,10,13,119.20
2011,07,18,10,14,115.80
2011,07,18,10,15,111.80
2011,07,18,10,16,109.20
2011,07,18,10,17,107.00
2011,07,18,10,18,107.00
2011,07,18,10,19,106.10
2011,07,18,10,20,105.00
2011,07,18,10,21,105.00
2011,07,18,10,22,105.00
2011,07,18,10,23,105.00
2011,07,18,10,24,105.00
2011,07,18,10,25,105.90
2011,07,18,10,26,107.00
2011,07,18,10,27,107.00
2011,07,18,10,28,107.00
2011,07,18,10,29,107.00
2011,07,18,10,30,106.30
2011,07,18,10,31,106.00
2011,07,18,10,32,107.00
2011,07,18,10,33,105.40
2011,07,18,10,34,104.90
2011,07,18,10,35,104.00
2011,07,18,10,36,103.30
2011,07,18,10,37,101.00
2011,07,18,10,38,98.60
2011,07,18,10,39,97.20
2011,07,18,10,40,94.90
2011,07,18,10,41,93.00
2011,07,18,10,42,91.90
2011,07,18,10,43,88.90
2011,07,18,10,44,88.00
2011,07,18,10,45,86.30
2011,07,18,10,46,86.00
2011,07,18,10,47,86.50
2011,07,18,10,48,88.00
2011,07,18,10,49,89.20
2011,07,18,10,50,90.70
2011,07,18,10,51,91.00
2011,07,18,10,52,93.10
2011,07,18,10,53,95.50
2011,07,18,10,54,97.40
2011,07,18,10,55,98.00
2011,07,18,10,56,99.40
2011,07,18,10,57,103.60
2011,07,18,10,58,107.90
2011,07,18,10,59,113.90
2011,07,18,11,00,118.20
2011,07,18,11,01,124.60
2011,07,18,11,02,130.70
2011,07,18,11,03,134.90
2011,07,18,11,04,139.60
2011,07,18,11,05,142.00
2011,07,18,11,06,142.00
2011,07,18,11,07,142.00
2011,07,18,11,08,142.00
2011,07,18,11,09,141.10
2011,07,18,11,10,141.00
2011,07,18,11,11,141.30
2011,07,18,11,12,142.90
2011,07,18,11,13,145.30
2011,07,18,11,14,148.40
2011,07,18,11,15,150.90
2011,07,18,11,16,153.00
2011,07,18,11,17,153.00
2011,07,18,11,18,152.00
2011,07,18,11,19,148.90
2011,07,18,11,20,146.40
2011,07,18,11,21,143.90
2011,07,18,11,22,141.80
2011,07,18,11,23,140.30
2011,07,18,11,24,139.00
2011,07,18,11,25,140.40
2011,07,18,11,26,141.80
2011,07,18,11,27,144.10
2011,07,18,11,28,146.90
2011,07,18,11,29,150.70
2011,07,18,11,30,154.10
2011,07,18,11,31,155.70
2011,07,18,11,32,156.00
2011,07,18,11,33,154.80
2011,07,18,11,34,152.00
2011,07,18,11,35,147.70
2011,07,18,11,36,143.80
2011,07,18,11,37,142.00
2011,07,18,11,38,139.30
2011,07,18,11,39,139.00
2011,07,18,11,40,139.00
2011,07,18,11,41,139.00
2011,07,18,11,42,139.00
2011,07,18,11,43,139.00
2011,07,18,11,44,140.80
2011,07,18,11,45,141.20
2011,07,18,11,46,142.00
2011,07,18,11,47,142.00
2011,07,18,11,48,143.20
2011,07,18,11,49,142.40
2011,07,18,11,50,137.30
2011,07,18,11,51,134.40
2011,07,18,11,52,132.00
2011,07,18,11,53,132.90
2011,07,18,11,54,134.60
2011,07,18,11,55,135.00
2011,07,18,11,56,136.90
2011,07,18,11,57,137.00
2011,07,18,11,58,137.70
2011,07,18,11,59,139.00
2011,07,18,12,00,140.40
2011,07,18,12,01,141.80
2011,07,18,12,02,146.10
2011,07,18,12,03,150.00
2011,07,18,12,04,154.80
2011,07,18,12,05,160.00
2011,07,18,12,06,165.50
2011,07,18,12,07,172.90
2011,07,18,12,08,181.10
2011,07,18,12,09,187.60
2011,07,18,12,10,194.10
2011,07,18,12,11,198.20
2011,07,18,12,12,202.50
2011,07,18,12,13,206.60
2011,07,18,12,14,213.80
2011,07,18,12,15,220.10
2011,07,18,12,16,227.90
2011,07,18,12,17,234.90
2011,07,18,12,18,239.90
2011,07,18,12,19,245.50
2011,07,18,12,20,251.90
2011,07,18,12,21,258.50
2011,07,18,12,22,264.40
2011,07,18,12,23,271.10
2011,07,18,12,24,277.50
2011,07,18,12,25,286.20
2011,07,18,12,26,292.50
2011,07,18,12,27,296.90
2011,07,18,12,28,304.10
2011,07,18,12,29,313.20
2011,07,18,12,30,323.10
2011,07,18,12,31,333.70
2011,07,18,12,32,347.50
2011,07,18,12,33,360.10
2011,07,18,12,34,371.00
2011,07,18,12,35,383.80
2011,07,18,12,36,400.80
2011,07,18,12,37,435.30
2011,07,18,12,38,504.60
2011,07,18,12,39,568.30
2011,07,18,12,40,623.50
2011,07,18,12,41,670.00
2011,07,18,12,42,858.70
2011,07,18,12,43,873.10
2011,07,18,12,44,546.00
2011,07,18,12,45,528.30
2011,07,18,12,46,525.60
2011,07,18,12,47,544.50
2011,07,18,12,48,554.00
2011,07,18,12,49,578.70
2011,07,18,12,50,789.00
2011,07,18,12,51,703.40
2011,07,18,12,52,562.80
2011,07,18,12,53,554.00
2011,07,18,12,54,568.50
2011,07,18,12,55,614.60
2011,07,18,12,56,629.90
2011,07,18,12,57,553.60
2011,07,18,12,58,526.20
2011,07,18,12,59,512.70
2011,07,18,13,00,509.60
2011,07,18,13,01,499.30
2011,07,18,13,02,487.60
2011,07,18,13,03,476.80
2011,07,18,13,04,465.80
2011,07,18,13,05,461.30
2011,07,18,13,06,461.00
2011,07,18,13,07,470.70
2011,07,18,13,08,465.20
2011,07,18,13,09,453.00
2011,07,18,13,10,446.10
2011,07,18,13,11,443.50
2011,07,18,13,12,441.20
2011,07,18,13,13,441.00
2011,07,18,13,14,440.30
2011,07,18,13,15,438.50
2011,07,18,13,16,435.40
2011,07,18,13,17,432.40
2011,07,18,13,18,431.00
2011,07,18,13,19,429.00
2011,07,18,13,20,429.00
2011,07,18,13,21,429.00
2011,07,18,13,22,431.10
2011,07,18,13,23,433.60
2011,07,18,13,24,436.10
2011,07,18,13,25,438.30
2011,07,18,13,26,438.60
2011,07,18,13,27,435.90
2011,07,18,13,28,432.00
2011,07,18,13,29,427.60
2011,07,18,13,30,424.00
2011,07,18,13,31,422.00
2011,07,18,13,32,422.00
2011,07,18,13,33,423.20
2011,07,18,13,34,424.70
2011,07,18,13,35,426.70
2011,07,18,13,36,427.00
2011,07,18,13,37,427.00
2011,07,18,13,38,427.00
2011,07,18,13,39,425.90
2011,07,18,13,40,424.30
2011,07,18,13,41,424.00
2011,07,18,13,42,424.10
2011,07,18,13,43,425.00
2011,07,18,13,44,425.00
2011,07,18,13,45,425.00
2011,07,18,13,46,425.00
2011,07,18,13,47,425.00
2011,07,18,13,48,427.30
2011,07,18,13,49,429.60
2011,07,18,13,50,432.40
2011,07,18,13,51,437.00
2011,07,18,13,52,443.70
2011,07,18,13,53,450.00
2011,07,18,13,54,455.40
2011,07,18,13,55,457.00
2011,07,18,13,56,457.00
2011,07,18,13,57,458.20
2011,07,18,13,58,459.00
2011,07,18,13,59,462.10
2011,07,18,14,00,466.60
2011,07,18,14,01,469.70
2011,07,18,14,02,471.00
2011,07,18,14,03,469.60
2011,07,18,14,04,465.00
2011,07,18,14,05,460.80
2011,07,18,14,06,457.00
2011,07,18,14,07,457.00
2011,07,18,14,08,459.10
2011,07,18,14,09,461.60
2011,07,18,14,10,461.20
2011,07,18,14,11,474.70
2011,07,18,14,12,491.00
2011,07,18,14,13,501.60
2011,07,18,14,14,513.00
2011,07,18,14,15,522.20
2011,07,18,14,16,531.60
2011,07,18,14,17,544.70
2011,07,18,14,18,559.70
2011,07,18,14,19,573.00
2011,07,18,14,20,604.80
2011,07,18,14,21,642.90
2011,07,18,14,22,676.70
2011,07,18,14,23,674.00
2011,07,18,14,24,687.40
2011,07,18,14,25,657.20
2011,07,18,14,26,598.20
2011,07,18,14,27,563.20
2011,07,18,14,28,553.00
2011,07,18,14,29,538.70
2011,07,18,14,30,527.40
2011,07,18,14,31,525.40
2011,07,18,14,32,537.10
2011,07,18,14,33,543.00
2011,07,18,14,34,529.40
2011,07,18,14,35,520.90
2011,07,18,14,36,516.30
2011,07,18,14,37,517.10
2011,07,18,14,38,524.20
2011,07,18,14,39,539.60
2011,07,18,14,40,556.70
2011,07,18,14,41,604.50
2011,07,18,14,42,550.80
2011,07,18,14,43,493.50
2011,07,18,14,44,478.20
2011,07,18,14,45,472.00
2011,07,18,14,46,465.80
2011,07,18,14,47,461.20
2011,07,18,14,48,457.40
2011,07,18,14,49,453.40
2011,07,18,14,50,447.80
2011,07,18,14,51,445.20
2011,07,18,14,52,443.40
2011,07,18,14,53,452.60
2011,07,18,14,54,466.20
2011,07,18,14,55,482.20
2011,07,18,14,56,492.00
2011,07,18,14,57,497.40
2011,07,18,14,58,499.00
2011,07,18,14,59,499.00
2011,07,18,15,00,499.00
2011,07,18,15,01,473.50
2011,07,18,15,02,451.20
2011,07,18,15,03,459.80
2011,07,18,15,04,524.40
2011,07,18,15,05,589.00
2011,07,18,15,06,535.50
2011,07,18,15,07,506.60
2011,07,18,15,08,463.60
2011,07,18,15,09,421.10
2011,07,18,15,10,410.80
2011,07,18,15,11,410.00
2011,07,18,15,12,410.00
2011,07,18,15,13,413.20
2011,07,18,15,14,435.50
2011,07,18,15,15,431.80
2011,07,18,15,16,425.50
2011,07,18,15,17,420.00
2011,07,18,15,18,420.00
2011,07,18,15,19,421.30
2011,07,18,15,20,429.50
2011,07,18,15,21,453.20
2011,07,18,15,22,443.40
2011,07,18,15,23,463.90
2011,07,18,15,24,479.50
2011,07,18,15,25,451.00
2011,07,18,15,26,443.40
2011,07,18,15,27,448.40
2011,07,18,15,28,453.00
2011,07,18,15,29,438.40
2011,07,18,15,30,432.50
2011,07,18,15,31,429.60
2011,07,18,15,32,433.00
2011,07,18,15,33,432.10
2011,07,18,15,34,431.70
2011,07,18,15,35,431.00
2011,07,18,15,36,432.60
2011,07,18,15,37,436.70
2011,07,18,15,38,442.00
2011,07,18,15,39,446.60
2011,07,18,15,40,450.60
2011,07,18,15,41,452.00
2011,07,18,15,42,450.90
2011,07,18,15,43,447.10
2011,07,18,15,44,443.50
2011,07,18,15,45,438.20
2011,07,18,15,46,435.80
2011,07,18,15,47,423.80
2011,07,18,15,48,413.20
2011,07,18,15,49,404.80
2011,07,18,15,50,396.30
2011,07,18,15,51,386.50
2011,07,18,15,52,379.40
2011,07,18,15,53,373.80
2011,07,18,15,54,368.50
2011,07,18,15,55,363.00
2011,07,18,15,56,359.10
2011,07,18,15,57,355.00
2011,07,18,15,58,351.90
2011,07,18,15,59,343.50
2011,07,18,16,00,338.90
2011,07,18,16,01,336.40
2011,07,18,16,02,334.20
2011,07,18,16,03,335.00
2011,07,18,16,04,339.00
2011,07,18,16,05,333.70
2011,07,18,16,06,324.90
2011,07,18,16,07,317.50
2011,07,18,16,08,311.20
2011,07,18,16,09,306.60
2011,07,18,16,10,300.70
2011,07,18,16,11,296.80
2011,07,18,16,12,292.80
2011,07,18,16,13,290.30
2011,07,18,16,14,286.80
2011,07,18,16,15,282.50
2011,07,18,16,16,280.20
2011,07,18,16,17,278.50
2011,07,18,16,18,276.50
2011,07,18,16,19,274.20
2011,07,18,16,20,270.10
2011,07,18,16,21,264.10
2011,07,18,16,22,259.90
2011,07,18,16,23,253.50
2011,07,18,16,24,248.80
2011,07,18,16,25,243.50
2011,07,18,16,26,238.50
2011,07,18,16,27,234.70
2011,07,18,16,28,231.10
2011,07,18,16,29,230.00
2011,07,18,16,30,229.30
2011,07,18,16,31,229.10
2011,07,18,16,32,230.00
2011,07,18,16,33,230.70
2011,07,18,16,34,232.00
2011,07,18,16,35,232.00
2011,07,18,16,36,230.50
2011,07,18,16,37,228.90
2011,07,18,16,38,226.20
2011,07,18,16,39,222.30
2011,07,18,16,40,220.50
2011,07,18,16,41,218.70
2011,07,18,16,42,218.00
2011,07,18,16,43,218.00
2011,07,18,16,44,218.40
2011,07,18,16,45,220.40
2011,07,18,16,46,221.00
2011,07,18,16,47,222.40
2011,07,18,16,48,224.70
2011,07,18,16,49,225.20
2011,07,18,16,50,227.50
2011,07,18,16,51,231.10
2011,07,18,16,52,235.60
2011,07,18,16,53,241.80
2011,07,18,16,54,249.10
2011,07,18,16,55,252.50
2011,07,18,16,56,247.50
2011,07,18,16,57,246.80
2011,07,18,16,58,249.20
2011,07,18,16,59,250.00
2011,07,18,17,00,250.00
2011,07,18,17,01,249.70
2011,07,18,17,02,248.00
2011,07,18,17,03,247.10
2011,07,18,17,04,244.30
2011,07,18,17,05,241.50
2011,07,18,17,06,239.20
2011,07,18,17,07,236.80
2011,07,18,17,08,235.40
2011,07,18,17,09,233.10
2011,07,18,17,10,230.70
2011,07,18,17,11,227.80
2011,07,18,17,12,223.10
2011,07,18,17,13,216.90
2011,07,18,17,14,211.70